Location: Unspecified
(43.1763°N, 79.4719°W)
Time: 09:53:12
(UTC-05:00)

CZ-3 Stage 3 - Visible Passes

Search period start: 18 December 2017 00:00
Search period end: 28 December 2017 00:00
Orbit: 418 x 34779 km, 31.0° (Epoch: 18 December)

Date Brightness Start Highest point End Pass type
(mag) Time Alt. Az. Time Alt. Az. Time Alt. Az.
18 Dec 6.4 06:02:39 10° SW 06:17:05 21° S 08:09:25 10° SSE visible
19 Dec 6.2 02:32:16 18° SE 02:32:16 18° SE 02:39:17 10° SE visible
20 Dec 5.6 19:06:32 10° S 19:07:58 10° S 19:09:12 10° S visible
21 Dec 6.4 05:53:48 10° SW 06:08:06 20° S 07:44:10 10° SSE visible
22 Dec 6.4 02:23:32 16° SE 02:23:32 16° SE 02:29:20 10° SE visible
23 Dec 5.6 18:54:57 10° SSW 18:58:45 11° S 19:01:24 10° SSE visible
24 Dec 6.5 05:45:00 10° SW 05:59:06 18° S 07:21:28 10° SSE visible
25 Dec 6.5 02:14:48 15° SE 02:14:48 15° SE 02:19:22 10° SE visible
26 Dec 5.5 18:44:04 10° SSW 18:49:32 12° S 18:52:51 10° SSE visible
27 Dec 6.6 05:36:15 10° SW 05:50:06 17° S 07:00:40 10° SSE visible
